FW0208 Weather Reports


Display with metric or nautical units.
time (UTC)temp
F
wind
direction
speed
MPH
gust
MPH
rain 1hr
in
rain 24hr
in
rain mn
in
humidity
%
barometer
mb
20260507181552 56 5 2.0 5.0 0.00 0.00 0.00 70 1014.7
20260507180056 56 327 3.0 6.0 0.00 0.00 0.00 69 1014.7
20260507174551 57 342 3.0 9.0 0.00 0.00 0.00 69 1014.7
20260507173051 58 319 3.0 6.0 0.00 0.00 0.00 68 1014.6
20260507171551 58 341 3.0 6.0 0.00 0.00 0.00 68 1014.6
20260507170050 59 329 3.0 8.0 0.00 0.00 0.00 66 1014.7
20260507164549 59 50 1.0 6.0 0.00 0.00 0.00 63 1014.7
20260507163049 59 53 4.0 10.0 0.00 0.00 0.00 63 1014.6
20260507161549 59 63 4.0 8.0 0.00 0.00 0.00 63 1014.6
20260507160048 60 26 4.0 9.0 0.00 0.00 0.00 64 1014.5
20260507154547 59 11 4.0 8.0 0.00 0.00 0.00 56 1014.6
20260507153148 59 96 1.0 4.0 0.00 0.00 0.00 55 1014.5
20260507151545 59 104 1.0 3.0 0.00 0.00 0.00 55 1014.6
20260507150046 59 198 0.0 2.0 0.00 0.00 0.00 55 1014.5
20260507144545 59 44 1.0 5.0 0.00 0.00 0.00 56 1014.5
20260507143044 59 46 0.0 4.0 0.00 0.00 0.00 54 1014.5
20260507141544 59 5 0.0 3.0 0.00 0.00 0.00 55 1014.5
20260507140043 59 19 1.0 6.0 0.00 0.00 0.00 56 1014.6
20260507134542 59 303 2.0 4.0 0.00 0.00 0.00 53 1014.7
20260507133041 59 313 2.0 4.0 0.00 0.00 0.00 54 1014.7
20260507131558 59 346 2.0 7.0 0.00 0.00 0.00 54 1014.7
20260507130042 60 345 3.0 8.0 0.00 0.00 0.00 52 1014.7
20260507124538 60 266 2.0 9.0 0.00 0.00 0.00 52 1014.7
20260507123037 61 317 3.0 8.0 0.00 0.00 0.00 51 1014.6
20260507121537 60 338 5.0 9.0 0.00 0.00 0.00 52 1014.6
20260507120035 60 344 3.0 8.0 0.00 0.00 0.00 55 1014.6
20260507114539 61 360 4.0 8.0 0.00 0.00 0.00 56 1014.5
20260507113035 61 340 4.0 12.0 0.00 0.00 0.00 58 1014.5
20260507111533 64 355 5.0 10.0 0.00 0.00 0.00 58 1014.6
20260507110033 64 324 4.0 10.0 0.00 0.00 0.00 56 1014.6
20260507104532 62 335 6.0 9.0 0.00 0.00 0.00 59 1014.8
20260507103031 62 45 1.0 7.0 0.00 0.00 0.00 59 1014.8
20260507101527 59 55 2.0 5.0 0.00 0.00 0.00 59 1014.8
20260507100032 62 56 3.0 7.0 0.00 0.00 0.00 59 1014.7
20260507094521 61 42 2.0 8.0 0.00 0.00 0.00 61 1014.6
20260507093018 60 5 3.0 7.0 0.00 0.00 0.00 62 1014.6
20260507091522 60 334 3.0 8.0 0.00 0.00 0.00 64 1014.6
20260507090011 59 49 3.0 8.0 0.00 0.00 0.00 66 1014.4
20260507084507 59 15 3.0 8.0 0.00 0.00 0.00 65 1014.4
20260507083004 59 355 2.0 5.0 0.00 0.00 0.00 65 1014.4
20260507081610 58 11 2.0 6.0 0.00 0.00 0.00 65 1014.4
20260507080108 57 40 2.0 6.0 0.00 0.02 0.00 67 1014.4
20260507074551 55 50 3.0 6.0 0.00 0.02 0.00 73 1014.4
20260507073046 53 59 3.0 8.0 0.00 0.02 0.00 77 1014.2
20260507071601 52 51 4.0 8.0 0.00 0.02 0.00 80 1014.2
20260507070041 51 42 2.0 6.0 0.00 0.02 0.00 81 1014.2
20260507064538 51 53 3.0 5.0 0.00 0.02 0.00 82 1014.1
20260507063042 50 36 2.0 9.0 0.00 0.02 0.00 82 1014.1
20260507061532 50 42 4.0 9.0 0.00 0.02 0.00 84 1013.9
20260507060035 49 34 3.0 9.0 0.00 0.02 0.00 85 1013.9
20260507054526 49 5 2.0 4.0 0.00 0.02 0.00 86 1013.8
20260507053025 48 337 0.0 5.0 0.00 0.02 0.00 85 1013.7
20260507051529 48 47 3.0 9.0 0.00 0.02 0.00 85 1013.5
20260507050021 48 26 3.0 6.0 0.00 0.02 0.00 85 1013.3
20260507044514 48 40 3.0 6.0 0.00 0.02 0.00 85 1013.2
20260507043013 48 58 3.0 8.0 0.00 0.02 0.00 85 1013.0
20260507041511 48 43 2.0 6.0 0.00 0.02 0.00 85 1013.0
20260507040009 48 24 1.0 6.0 0.00 0.02 0.00 85 1012.8
20260507034514 48 30 1.0 4.0 0.00 0.02 0.00 85 1012.7
20260507033013 48 49 3.0 7.0 0.00 0.02 0.00 85 1012.6
20260507031559 48 44 2.0 6.0 0.00 0.02 0.00 86 1012.5
20260507030057 47 51 0.0 2.0 0.00 0.02 0.00 85 1012.4
20260507024602 47 71 0.0 0.0 0.00 0.02 0.00 85 1012.4
20260507023156 47 71 0.0 0.0 0.00 0.02 0.00 85 1012.3
20260507021551 47 73 0.0 1.0 0.00 0.02 0.00 85 1012.3
20260507020051 47 51 0.0 0.0 0.00 0.02 0.00 84 1012.1
20260507014559 47 51 0.0 0.0 0.00 0.02 0.00 84 1012.0
20260507013050 47 51 0.0 0.0 0.00 0.02 0.00 84 1011.9
20260507011548 47 51 0.0 0.0 0.00 0.02 0.00 83 1011.9
20260507010049 47 51 0.0 0.0 0.00 0.02 0.00 83 1012.0
20260507004547 47 51 0.0 0.0 0.00 0.02 0.00 83 1011.8
20260507003044 47 51 0.0 0.0 0.00 0.02 0.00 83 1011.8
20260507001549 48 51 0.0 0.0 0.00 0.02 0.00 82 1011.8
20260507000041 48 51 0.0 0.0 0.00 0.02 0.00 82 1011.8
20260506234539 48 51 0.0 2.0 0.00 0.02 0.00 81 1011.7
20260506233039 48 52 0.0 0.0 0.00 0.02 0.00 81 1011.7
20260506231538 48 52 0.0 0.0 0.00 0.02 0.00 81 1011.7
20260506230037 48 52 0.0 0.0 0.00 0.02 0.00 79 1011.5
20260506224535 48 52 0.0 1.0 0.00 0.02 0.00 79 1011.4
20260506223033 49 52 0.0 0.0 0.00 0.02 0.00 78 1011.3
20260506221530 49 52 1.0 3.0 0.00 0.02 0.00 78 1011.3
20260506220036 49 49 0.0 0.0 0.00 0.02 0.02 77 1011.3
20260506214527 49 49 0.0 0.0 0.00 0.02 0.02 75 1011.2
20260506213030 49 49 0.0 0.0 0.00 0.02 0.02 74 1011.1
20260506211526 50 50 0.0 0.0 0.00 0.02 0.02 73 1011.0
20260506210024 50 49 0.0 0.0 0.00 0.02 0.02 72 1010.9
20260506204522 51 57 0.0 0.0 0.00 0.02 0.02 70 1010.8
20260506203021 51 57 0.0 3.0 0.00 0.02 0.02 70 1010.6
20260506201519 52 58 1.0 4.0 0.00 0.02 0.02 69 1010.5
20260506200021 53 65 1.0 3.0 0.00 0.02 0.02 68 1010.6
20260506194515 53 59 1.0 4.0 0.00 0.02 0.02 67 1010.4
20260506193011 53 37 4.0 6.0 0.00 0.02 0.02 66 1010.3
20260506191510 54 47 3.0 8.0 0.00 0.02 0.02 66 1010.2
20260506190012 55 59 4.0 10.0 0.00 0.02 0.02 65 1010.0
20260506184506 55 38 3.0 8.0 0.00 0.02 0.02 65 1009.8
20260506183006 56 74 3.0 7.0 0.00 0.02 0.02 64 1009.6